This demonstration page uses our WeatherBlox Daily Observations layout. Learn more.

Left ArrowRight Arrow

34.74481, -87.66753

Hourly Observations for June 20, 2019

Temp ( °F °C ) Dew Point ( °F °C ) Humidity (%) Winds ( mph kmh ) Pressure ( in mb ) Visibility ( mi km ) Precip ( " mm )
12:53 am 00:53 Cloudy 81 27.2 72 22.2 74 74 SSW 9 15 29.72 1007 10 16 0.00 0.00
1:53 am 01:53 Cloudy with Nearby Thunderstorms 82 27.8 71 21.7 69 69 SW 13 20 29.71 1006 10 16 0.00 0.00
2:21 am 02:21 Cloudy with Thunderstorms 79 26.1 72 22.2 79 79 WSW 15 24 29.73 1007 10 16 0.12 3.05
2:30 am 02:30 Cloudy with Nearby Thunderstorms 77 25 72 22.2 85 85 SW 22 35 29.74 1007 10 16 0.29 7.37
2:40 am 02:40 Windy with Storms Likely 77 25 72 22.2 85 85 SW 24 39 29.73 1007 10 16 0.36 9.14
2:53 am 02:53 Mostly Cloudy with Thunderstorms 75 23.9 70 21.1 84 84 WSW 21 33 29.74 1007 10 16 0.36 9.14
3:01 am 03:01 Partly Cloudy with Nearby Thunderstorms 75 23.9 69 20.6 82 82 WSW 21 33 29.76 1008 10 16 0.00 0.03
3:08 am 03:08 Partly Cloudy with Light Rain 74 23.3 69 20.6 85 85 W 14 22 29.76 1008 10 16 0.00 0.03
3:53 am 03:53 Mostly Cloudy 73 22.8 67 19.4 81 81 SW 9 15 29.75 1008 10 16 0.01 0.25
4:53 am 04:53 Clear 71 21.7 67 19.4 87 87 S 10 17 29.74 1007 10 16 0.00 0.00
5:53 am 05:53 Sunny 71 21.7 66 18.9 84 84 SSW 9 15 29.78 1008 10 16 0.00 0.00
6:53 am 06:53 Mostly Cloudy 71 21.7 67 19.4 87 87 SW 10 17 29.79 1009 10 16 0.00 0.00
7:53 am 07:53 Cloudy 73 22.8 67 19.4 81 81 WSW 7 11 29.78 1009 10 16 0.00 0.00
8:53 am 08:53 Mostly Cloudy 73 22.8 66 18.9 79 79 SSW 9 15 29.80 1009 10 16 0.00 0.00
9:53 am 09:53 Sunny 78 25.6 67 19.4 69 69 W 12 19 29.80 1009 10 16 0.00 0.00
10:53 am 10:53 Mostly Sunny 83 28.3 67 19.4 59 59 WSW 8 13 29.81 1009 10 16 0.00 0.00
11:53 am 11:53 Mostly Cloudy 85 29.4 65 18.3 51 51 W 18 30 29.83 1010 10 16 0.00 0.00
12:53 pm 12:53 Cloudy 85 29.4 66 18.9 53 53 W 20 31 29.84 1010 10 16 0.00 0.00
1:53 pm 13:53 Cloudy 85 29.4 66 18.9 53 53 W 12 19 29.84 1011 10 16 0.00 0.00
2:53 pm 14:53 Partly Cloudy 89 31.7 67 19.4 48 48 WNW 16 26 29.84 1010 10 16 0.00 0.00
3:53 pm 15:53 Mostly Cloudy 88 31.1 68 20 52 52 W 15 24 29.84 1010 10 16 0.00 0.00
4:53 pm 16:53 Mostly Sunny 88 31.1 67 19.4 50 50 W 14 22 29.83 1010 10 16 0.00 0.00
5:53 pm 17:53 Sunny 87 30.6 66 18.9 50 50 W 9 15 29.83 1010 10 16 0.00 0.00
6:53 pm 18:53 Mostly Sunny 86 30 66 18.9 51 51 W 13 20 29.85 1011 10 16 0.00 0.00
7:53 pm 19:53 Sunny 82 27.8 68 20 63 63 W 6 9 29.85 1011 10 16 0.00 0.00
8:53 pm 20:53 Clear 78 25.6 69 20.6 74 74 W 3 6 29.87 1011 10 16 0.00 0.00
9:53 pm 21:53 Clear 77 25 69 20.6 77 77 Calm 29.89 1012 10 16 0.00 0.00
10:53 pm 22:53 Clear 74 23.3 70 21.1 88 88 undefined N/A 29.92 1013 10 16 0.00 0.00
11:53 pm 23:53 Clear 72 22.2 69 20.6 91 91 undefined N/A 29.93 1014 10 16 0.00 0.00

Powered by AerisWeather